Back to catalog

KUIPER-00048

AliveCommunicationsLEO
NORAD 64508·PAYLOAD·🇺🇸 United States

Launched Jun 23, 2025 from Cape Canaveral Space Force Station

Loading…

Next Passes (next 24 hours)

TLE

FreshSource: CelesTrak SupGP

Epoch: Sep 14, 2026, 12:25 UTC

1 64508C 25134J   26257.51782407  .00001656  00000+0  21694-3 0  2573
2 64508  51.8974 100.5653 0000761 105.0853 189.7484 14.79908920    16

Track KUIPER-00048 in real time with AllMySat

Download on the App Store